CPA24W VHHH-PHNL

Flight info

Callsign CPA24W
Flight time N/A
Altitude 33000
Route DALOL DCT NOMAN M501 OMDOB DCT 19N130E DCT KEITH DCT VASKO DCT 29N150E/N0496F350 32N160E 32N170E 30N180E/N0486F370 26N170W DCT CANON BOOKE8
Aircraft B77W/H-SDE1E2E3FGHIJ2J3J4J5M1RWXY/LB1D1

Departure

Time 2026-05-04 21:47
Airport Hong Kong International Airport (VHHH)

Arrival

Time N/A
Airport Daniel K. Inouye International Airport (PHNL)
Time Latitude Longitude Altitude Speed Heading
2026-05-04 21:16 22.31111 113.92741 42 ft 0 kts 295°
2026-05-04 21:28 22.31109 113.92746 40 ft 4 kts 295°
2026-05-04 21:28 22.31097 113.92772 39 ft 4 kts 297°
2026-05-04 21:29 22.31084 113.92797 38 ft 4 kts 300°
2026-05-04 21:29 22.31070 113.92822 40 ft 3 kts 297°
2026-05-04 21:29 22.31069 113.92836 39 ft 2 kts 199°
2026-05-04 21:29 22.31075 113.92838 37 ft 0 kts 208°
2026-05-04 21:36 22.31072 113.92836 37 ft 1 kts 208°
2026-05-04 21:37 22.31048 113.92823 39 ft 7 kts 206°
2026-05-04 21:37 22.30990 113.92792 41 ft 10 kts 206°
2026-05-04 21:37 22.30923 113.92762 41 ft 10 kts 188°
2026-05-04 21:37 22.30852 113.92777 41 ft 10 kts 163°
2026-05-04 21:38 22.30792 113.92817 41 ft 10 kts 121°
2026-05-04 21:38 22.30806 113.92892 41 ft 11 kts 69°
2026-05-04 21:38 22.30832 113.92965 41 ft 11 kts 71°
2026-05-04 21:38 22.30854 113.93039 41 ft 7 kts 72°
2026-05-04 21:39 22.30874 113.93082 41 ft 7 kts 45°
2026-05-04 21:39 22.30919 113.93091 41 ft 8 kts 344°
2026-05-04 21:39 22.30944 113.93039 41 ft 9 kts 267°
2026-05-04 21:39 22.30922 113.92960 41 ft 13 kts 250°
2026-05-04 21:40 22.30889 113.92861 41 ft 15 kts 251°
2026-05-04 21:40 22.30851 113.92743 41 ft 17 kts 250°
2026-05-04 21:40 22.30811 113.92621 41 ft 17 kts 250°
2026-05-04 21:40 22.30785 113.92540 42 ft 17 kts 250°
2026-05-04 21:41 22.30733 113.92377 42 ft 17 kts 251°
2026-05-04 21:41 22.30707 113.92296 42 ft 17 kts 251°
2026-05-04 21:41 22.30655 113.92135 42 ft 17 kts 250°
2026-05-04 21:41 22.30615 113.92013 42 ft 17 kts 251°
2026-05-04 21:42 22.30576 113.91891 42 ft 17 kts 251°
2026-05-04 21:42 22.30537 113.91768 42 ft 18 kts 251°
2026-05-04 21:42 22.30509 113.91681 42 ft 20 kts 250°
2026-05-04 21:42 22.30451 113.91501 41 ft 32 kts 251°
2026-05-04 21:43 22.30370 113.91250 42 ft 36 kts 251°
2026-05-04 21:43 22.30289 113.91002 42 ft 34 kts 250°
2026-05-04 21:43 22.30214 113.90771 42 ft 31 kts 251°
2026-05-04 21:43 22.30145 113.90554 41 ft 30 kts 251°
2026-05-04 21:44 22.30076 113.90341 41 ft 30 kts 251°
2026-05-04 21:44 22.30007 113.90129 41 ft 30 kts 251°
2026-05-04 21:44 22.29939 113.89917 41 ft 30 kts 251°
2026-05-04 21:44 22.29857 113.89739 42 ft 25 kts 204°
2026-05-04 21:45 22.29696 113.89784 42 ft 25 kts 161°
2026-05-04 21:45 22.29640 113.89888 42 ft 18 kts 49°
2026-05-04 21:45 22.29668 113.89942 41 ft 0 kts 70°
2026-05-04 21:45 22.29680 113.89977 41 ft 17 kts 70°
2026-05-04 21:46 22.29813 113.90386 39 ft 83 kts 72°
2026-05-04 21:46 22.30047 113.91120 43 ft 134 kts 71°
2026-05-04 21:46 22.30408 113.92294 47 ft 185 kts 76°
2026-05-04 21:46 22.30770 113.93626 523 ft 187 kts 75°
2026-05-04 21:47 22.31151 113.95001 1068 ft 193 kts 74°
2026-05-04 21:47 22.31531 113.96416 1569 ft 197 kts 76°
2026-05-04 21:47 22.31906 113.97834 2139 ft 199 kts 76°
2026-05-04 21:47 22.32320 113.99283 2608 ft 204 kts 71°
2026-05-04 21:48 22.32874 114.00728 3029 ft 211 kts 70°
2026-05-04 21:48 22.33430 114.02230 3428 ft 219 kts 71°
2026-05-04 21:48 22.33723 114.03881 3598 ft 236 kts 100°
2026-05-04 21:48 22.33191 114.05594 3872 ft 247 kts 114°
2026-05-04 21:49 22.32516 114.07355 4331 ft 259 kts 113°
2026-05-04 21:49 22.31830 114.09205 4809 ft 271 kts 113°
2026-05-04 21:49 22.31147 114.11088 5439 ft 275 kts 112°
2026-05-04 21:49 22.30462 114.13010 6198 ft 273 kts 112°
2026-05-04 21:50 22.29791 114.14919 6844 ft 275 kts 112°
2026-05-04 21:50 22.29110 114.16862 7393 ft 280 kts 112°
2026-05-04 21:50 22.28338 114.18806 7881 ft 282 kts 126°
2026-05-04 21:50 22.27093 114.20453 8438 ft 285 kts 135°
2026-05-04 21:51 22.25736 114.22036 9063 ft 289 kts 135°